EW7144 Weather Reports


Display with metric or nautical units.
time (UTC)temp
F
wind
direction
speed
MPH
gust
MPH
rain 1hr
in
rain 24hr
in
rain mn
in
humidity
%
barometer
mb
20220516223906 61 315 2.0 9.0 0.02 0.20 0.06 98 1010.8
20220516223406 61 308 3.0 7.0 0.03 0.20 0.06 98 1010.9
20220516222906 61 309 3.0 8.0 0.03 0.20 0.06 99 1010.9
20220516222406 61 249 1.0 3.0 0.02 0.19 0.05 98 1010.8
20220516221906 61 250 2.0 3.0 0.02 0.19 0.05 98 1010.8
20220516221406 61 245 1.0 3.0 0.02 0.19 0.05 98 1010.8
20220516220906 61 320 1.0 3.0 0.02 0.19 0.05 98 1010.8
20220516220406 61 302 1.0 3.0 0.02 0.19 0.05 98 1010.8
20220516215906 61 296 1.0 2.0 0.03 0.19 0.05 98 1010.8
20220516215405 61 243 1.0 3.0 0.03 0.19 0.05 98 1010.8
20220516214905 61 278 1.0 3.0 0.02 0.18 0.04 98 1010.8
20220516214405 60 219 1.0 3.0 0.02 0.18 0.04 98 1010.8
20220516213905 60 291 1.0 2.0 0.02 0.18 0.04 98 1010.8
20220516213405 60 245 1.0 2.0 0.01 0.18 0.03 98 1010.8
20220516212906 60 245 1.0 2.0 0.01 0.18 0.03 98 1010.8
20220516212408 60 257 1.0 3.0 0.02 0.18 0.03 98 1010.8
20220516211906 60 266 1.0 2.0 0.02 0.18 0.03 98 1010.7
20220516211406 60 237 1.0 2.0 0.02 0.18 0.03 98 1010.8
20220516210906 60 235 1.0 2.0 0.02 0.18 0.03 98 1010.7
20220516210406 60 235 1.0 2.0 0.02 0.18 0.03 98 1010.8
20220516205906 60 235 1.0 2.0 0.01 0.17 0.02 98 1010.7
20220516205406 60 228 1.0 2.0 0.01 0.17 0.02 98 1010.7
20220516204905 59 213 1.0 3.0 0.01 0.17 0.02 98 1010.7
20220516204405 59 264 1.0 3.0 0.01 0.17 0.02 98 1010.7
20220516203905 59 349 0.0 1.0 0.01 0.17 0.02 98 1010.7
20220516203405 59 351 0.0 1.0 0.01 0.17 0.02 98 1010.7
20220516202905 59 348 0.0 1.0 0.01 0.17 0.02 98 1010.6
20220516202405 59 344 0.0 2.0 0.00 0.16 0.01 98 1010.6
20220516201905 58 348 0.0 1.0 0.00 0.16 0.01 98 1010.7
20220516201405 58 345 0.0 1.0 0.00 0.16 0.01 98 1010.6
20220516200906 58 347 1.0 2.0 0.00 0.16 0.01 98 1010.7
20220516200406 58 343 1.0 2.0 0.01 0.16 0.01 98 1010.7
20220516195905 58 341 0.0 1.0 0.01 0.16 0.01 98 1010.7
20220516195406 58 347 0.0 1.0 0.01 0.16 0.01 98 1010.7
20220516194906 58 344 0.0 1.0 0.01 0.16 0.01 98 1010.6
20220516194406 58 346 1.0 2.0 0.01 0.16 0.01 98 1010.6
20220516193905 58 342 0.0 2.0 0.01 0.16 0.01 98 1010.5
20220516193406 58 344 0.0 1.0 0.01 0.16 0.01 98 1010.5
20220516192906 58 345 1.0 2.0 0.01 0.16 0.01 98 1010.4
20220516192406 58 341 0.0 1.0 0.01 0.16 0.01 98 1010.5
20220516191906 58 341 0.0 1.0 0.01 0.16 0.01 97 1010.5
20220516191406 58 343 0.0 1.0 0.01 0.16 0.01 97 1010.6
20220516190906 58 339 1.0 2.0 0.01 0.16 0.01 97 1010.6
20220516190405 58 340 1.0 2.0 0.00 0.15 0.00 97 1010.6
20220516185905 58 335 1.0 3.0 0.00 0.15 0.00 97 1010.6
20220516185405 58 326 2.0 2.0 0.00 0.16 0.00 97 1010.6
20220516184907 58 312 0.0 1.0 0.00 0.16 0.00 97 1010.5
20220516184406 58 316 0.0 1.0 0.00 0.16 0.00 97 1010.4
20220516183905 58 310 0.0 1.0 0.00 0.17 0.00 97 1010.4
20220516183405 58 321 1.0 2.0 0.00 0.17 0.00 97 1010.5
20220516182906 58 307 1.0 2.0 0.00 0.17 0.00 97 1010.5
20220516182406 58 309 0.0 0.0 0.00 0.17 0.00 97 1010.5
20220516181905 58 320 0.0 0.0 0.00 0.17 0.00 97 1010.6
20220516181406 58 310 0.0 0.0 0.00 0.18 0.00 96 1010.7
20220516180905 58 316 0.0 0.0 0.00 0.18 0.00 96 1010.6
20220516180405 58 312 0.0 0.0 0.00 0.18 0.00 96 1010.7
20220516175905 58 313 0.0 0.0 0.00 0.18 0.00 96 1010.7
20220516175406 58 318 0.0 1.0 0.00 0.18 0.00 95 1010.7
20220516174905 58 312 0.0 1.0 0.00 0.18 0.00 96 1010.6
20220516174406 58 327 1.0 1.0 0.00 0.18 0.00 96 1010.8
20220516173905 58 312 0.0 1.0 0.00 0.18 0.00 96 1010.8
20220516173406 58 313 0.0 1.0 0.00 0.19 0.00 96 1010.8
20220516172905 58 318 1.0 2.0 0.00 0.19 0.00 96 1010.9
20220516172406 58 314 0.0 1.0 0.00 0.19 0.00 96 1010.8
20220516171905 58 308 1.0 2.0 0.00 0.20 0.00 96 1010.7
20220516171407 58 310 0.0 1.0 0.00 0.20 0.00 95 1010.8
20220516170905 58 310 0.0 1.0 0.00 0.20 0.00 95 1010.7
20220516170405 58 309 0.0 1.0 0.00 0.20 0.00 95 1010.8
20220516165905 58 317 0.0 1.0 0.00 0.21 0.00 95 1010.8
20220516165405 58 315 0.0 1.0 0.00 0.21 0.00 94 1010.8
20220516164905 58 308 1.0 2.0 0.00 0.21 0.00 94 1010.8
20220516164405 58 300 1.0 2.0 0.00 0.21 0.00 95 1010.8
20220516163905 58 303 0.0 1.0 0.00 0.21 0.00 94 1010.7
20220516163405 58 297 1.0 2.0 0.00 0.21 0.00 93 1010.8
20220516162905 58 297 1.0 2.0 0.00 0.21 0.00 95 1010.8
20220516162406 58 297 0.0 1.0 0.00 0.21 0.00 95 1010.8
20220516161905 58 304 0.0 1.0 0.00 0.22 0.00 95 1010.9
20220516161406 58 297 0.0 1.0 0.00 0.22 0.00 95 1011.0
20220516160905 58 297 0.0 2.0 0.00 0.22 0.00 95 1011.0
20220516160406 58 297 0.0 1.0 0.00 0.23 0.00 95 1011.1
20220516155905 58 303 1.0 2.0 0.00 0.23 0.00 95 1011.2
20220516155406 58 332 0.0 2.0 0.00 0.23 0.00 95 1011.4
20220516154905 58 333 0.0 1.0 0.00 0.23 0.00 94 1011.3
20220516154406 58 334 1.0 2.0 0.00 0.23 0.00 94 1011.4
20220516153905 58 333 0.0 1.0 0.00 0.23 0.00 93 1011.6
20220516153405 58 334 0.0 0.0 0.00 0.23 0.00 92 1011.5
20220516152905 58 334 0.0 1.0 0.00 0.23 0.00 92 1011.5
20220516152406 58 333 0.0 1.0 0.00 0.23 0.00 92 1011.5
20220516151905 59 335 1.0 1.0 0.00 0.23 0.00 91 1011.6
20220516151406 59 335 1.0 2.0 0.00 0.24 0.00 91 1011.6
20220516150906 59 338 1.0 2.0 0.00 0.24 0.00 91 1011.7
20220516150405 59 337 0.0 3.0 0.00 0.24 0.00 91 1011.6
20220516145905 58 337 1.0 3.0 0.00 0.24 0.00 91 1011.5
20220516145406 58 354 2.0 3.0 0.00 0.24 0.00 91 1011.6
20220516144905 58 347 1.0 3.0 0.00 0.24 0.00 91 1011.6
20220516144406 58 337 0.0 2.0 0.00 0.24 0.00 91 1011.7
20220516143905 58 339 0.0 1.0 0.00 0.25 0.00 92 1011.8
20220516143405 58 340 1.0 2.0 0.00 0.25 0.00 92 1011.8
20220516142905 58 339 1.0 2.0 0.00 0.25 0.00 91 1011.8
20220516142405 58 334 1.0 3.0 0.00 0.26 0.00 91 1011.9
20220516141906 58 324 1.0 2.0 0.00 0.26 0.00 91 1011.9
20220516141405 58 306 0.0 0.0 0.00 0.26 0.00 91 1011.9
20220516140906 58 300 0.0 0.0 0.00 0.26 0.00 91 1011.8
20220516140405 58 303 0.0 0.0 0.00 0.26 0.00 91 1011.9
20220516135905 58 312 0.0 0.0 0.00 0.26 0.00 91 1012.0
20220516135405 58 299 1.0 2.0 0.00 0.26 0.00 92 1012.0
20220516134905 57 337 1.0 2.0 0.00 0.26 0.00 92 1012.0
20220516134406 57 305 0.0 2.0 0.00 0.26 0.00 93 1011.9
20220516133905 57 296 1.0 3.0 0.00 0.26 0.00 94 1011.9
20220516133405 57 305 1.0 2.0 0.00 0.26 0.00 94 1011.9
20220516132905 57 321 0.0 3.0 0.00 0.26 0.00 94 1011.9
20220516132405 57 311 1.0 2.0 0.00 0.26 0.00 94 1011.9
20220516131905 57 297 1.0 3.0 0.00 0.26 0.00 94 1012.0
20220516131405 57 309 2.0 3.0 0.00 0.26 0.00 94 1012.0
20220516130905 57 301 1.0 2.0 0.00 0.26 0.00 95 1012.0
20220516130405 57 308 2.0 3.0 0.00 0.26 0.00 95 1012.0
20220516125905 57 340 2.0 3.0 0.13 0.26 0.00 94 1012.1
20220516125405 57 336 1.0 3.0 0.13 0.26 0.00 95 1012.1
20220516124905 57 334 2.0 3.0 0.13 0.26 0.00 95 1012.1
20220516124405 57 317 2.0 5.0 0.13 0.26 0.00 95 1012.1
20220516123905 57 297 2.0 5.0 0.13 0.26 0.00 95 1012.1
20220516123405 57 259 3.0 6.0 0.13 0.26 0.00 95 1012.0
20220516122906 57 261 3.0 8.0 0.13 0.26 0.00 95 1012.0
20220516122405 57 276 2.0 8.0 0.13 0.26 0.00 95 1012.0
20220516121905 57 325 2.0 7.0 0.13 0.26 0.00 95 1012.0
20220516121405 57 325 3.0 7.0 0.13 0.26 0.00 95 1011.9
20220516120905 57 300 5.0 8.0 0.13 0.26 0.00 95 1011.9
20220516120405 57 318 3.0 6.0 0.13 0.26 0.00 94 1011.8
20220516115906 58 230 2.0 8.0 0.00 0.73 0.13 93 1011.8
20220516115405 58 250 3.0 8.0 0.00 0.73 0.13 93 1011.8
20220516114905 58 267 3.0 7.0 0.00 0.73 0.13 93 1011.9
20220516114405 58 260 3.0 8.0 0.00 0.73 0.13 93 1011.9
20220516113905 58 226 4.0 9.0 0.00 0.73 0.13 94 1012.0
20220516113406 57 246 5.0 9.0 0.00 0.73 0.13 94 1012.0
20220516112906 57 247 4.0 8.0 0.00 0.73 0.13 94 1012.0
20220516112405 57 225 3.0 7.0 0.00 0.73 0.13 94 1012.0
20220516111906 58 241 5.0 9.0 0.00 0.73 0.13 95 1011.9
20220516111405 58 241 3.0 8.0 0.00 0.73 0.13 95 1012.0
20220516110905 58 231 5.0 9.0 0.00 0.73 0.13 95 1012.0
20220516110405 58 259 4.0 9.0 0.00 0.73 0.13 95 1012.0
20220516105905 58 281 5.0 12.0 0.00 0.73 0.13 95 1012.0
20220516105405 58 207 4.0 12.0 0.00 0.73 0.13 95 1012.0
20220516104906 58 218 5.0 10.0 0.00 0.73 0.13 95 1012.0
20220516104405 58 222 7.0 13.0 0.00 0.73 0.13 95 1012.0
20220516103905 58 225 5.0 10.0 0.00 0.73 0.13 96 1012.1
20220516103406 58 227 5.0 15.0 0.00 0.73 0.13 96 1012.2
20220516102905 58 226 5.0 9.0 0.00 0.73 0.13 96 1012.2
20220516102405 58 227 4.0 12.0 0.00 0.73 0.13 96 1012.3
20220516101906 58 250 5.0 10.0 0.00 0.73 0.13 96 1012.4
20220516101405 58 266 5.0 10.0 0.00 0.73 0.13 96 1012.3
20220516100906 57 226 6.0 12.0 0.00 0.73 0.13 96 1012.4
20220516100405 57 223 5.0 12.0 0.00 0.73 0.13 96 1012.4
20220516095905 57 221 5.0 8.0 0.00 0.73 0.13 96 1012.4
20220516095406 57 231 4.0 9.0 0.00 0.74 0.13 96 1012.5
20220516094906 57 220 4.0 12.0 0.00 0.74 0.13 96 1012.5
20220516094406 57 233 5.0 9.0 0.00 0.74 0.13 96 1012.5
20220516093905 57 259 4.0 10.0 0.00 0.74 0.13 97 1012.5
20220516093405 57 234 4.0 12.0 0.00 0.74 0.13 97 1012.4
20220516092905 57 208 3.0 8.0 0.00 0.74 0.13 97 1012.5
20220516092405 57 256 3.0 9.0 0.00 0.75 0.13 96 1012.4
20220516091905 57 216 5.0 10.0 0.00 0.75 0.13 96 1012.4
20220516091405 57 218 3.0 7.0 0.01 0.75 0.13 96 1012.3
20220516090905 57 217 3.0 7.0 0.01 0.75 0.13 96 1012.2
20220516090406 57 241 3.0 7.0 0.01 0.75 0.13 96 1012.1
20220516085906 57 210 3.0 7.0 0.01 0.75 0.13 96 1012.0
20220516085405 57 219 2.0 5.0 0.01 0.75 0.13 95 1012.0
20220516084905 57 235 3.0 6.0 0.01 0.75 0.13 95 1011.9
20220516084404 57 232 3.0 6.0 0.01 0.75 0.13 95 1011.9
20220516083905 57 220 3.0 6.0 0.01 0.75 0.13 96 1011.9
20220516083405 57 215 3.0 6.0 0.01 0.75 0.13 95 1011.8
20220516082905 57 217 2.0 5.0 0.01 0.75 0.13 95 1011.8
20220516082406 57 226 3.0 6.0 0.01 0.77 0.13 96 1011.8
20220516081905 57 243 3.0 6.0 0.01 0.79 0.13 96 1011.7
20220516081405 57 230 2.0 5.0 0.00 0.79 0.12 96 1011.7
20220516080906 57 199 2.0 6.0 0.00 0.80 0.12 95 1011.7
20220516080405 57 208 3.0 6.0 0.00 0.82 0.12 95 1011.7
20220516075905 58 212 3.0 6.0 0.00 0.85 0.12 95 1011.7
20220516075405 58 214 3.0 7.0 0.00 0.87 0.12 95 1011.8
20220516074904 58 221 3.0 7.0 0.00 0.89 0.12 95 1011.8
20220516074405 58 223 4.0 8.0 0.00 0.91 0.12 95 1011.8
20220516073905 58 218 2.0 8.0 0.00 0.93 0.12 95 1011.7
20220516073406 58 215 4.0 9.0 0.00 0.94 0.12 95 1011.7
20220516072905 58 219 5.0 10.0 0.00 0.94 0.12 95 1011.7
20220516072405 58 224 5.0 12.0 0.00 0.97 0.12 95 1011.6
20220516071905 58 223 5.0 9.0 0.00 1.00 0.12 96 1011.5
20220516071405 58 227 5.0 9.0 0.00 1.01 0.12 96 1011.5
20220516070905 58 221 3.0 7.0 0.00 1.04 0.12 96 1011.5
20220516070406 58 256 4.0 10.0 0.00 1.06 0.12 96 1011.5
20220516065905 58 238 4.0 10.0 0.00 1.06 0.12 96 1011.5
20220516065405 58 238 4.0 10.0 0.00 1.08 0.12 95 1011.4
20220516064906 58 237 3.0 10.0 0.00 1.08 0.12 95 1011.3
20220516064406 58 223 5.0 12.0 0.00 1.08 0.12 95 1011.3
20220516063905 58 239 4.0 10.0 0.00 1.08 0.12 95 1011.2
20220516063405 58 243 5.0 9.0 0.00 1.08 0.12 95 1011.2
20220516062907 58 258 3.0 6.0 0.00 1.08 0.12 94 1011.1
20220516062405 58 248 3.0 8.0 0.00 1.08 0.12 94 1011.1
20220516061906 58 254 3.0 8.0 0.00 1.08 0.12 94 1011.0
20220516061405 59 209 3.0 10.0 0.00 1.09 0.12 94 1011.0
20220516060906 59 249 3.0 8.0 0.00 1.09 0.12 93 1010.9
20220516060405 59 238 4.0 10.0 0.00 1.09 0.12 94 1010.9
20220516055905 59 248 3.0 8.0 0.00 1.09 0.12 93 1010.8
20220516055405 59 232 3.0 9.0 0.00 1.09 0.12 93 1010.8
20220516054905 59 233 4.0 8.0 0.00 1.09 0.12 93 1010.8
20220516054405 59 238 5.0 12.0 0.00 1.09 0.12 92 1010.7
20220516053905 60 246 5.0 12.0 0.00 1.09 0.12 92 1010.7
20220516053405 60 229 6.0 12.0 0.00 1.09 0.12 92 1010.6
20220516052905 60 242 3.0 10.0 0.00 1.10 0.12 92 1010.7
20220516052405 60 218 5.0 12.0 0.00 1.10 0.12 92 1010.5
20220516051405 61 237 5.0 12.0 0.00 1.10 0.12 90 1010.5
20220516050906 61 266 5.0 12.0 0.00 1.10 0.12 89 1010.5
20220516050406 62 258 6.0 12.0 0.00 1.10 0.12 89 1010.3
20220516045905 62 263 3.0 9.0 0.00 1.10 0.12 89 1010.3
20220516045405 62 255 5.0 10.0 0.00 1.10 0.12 89 1010.1
20220516044906 62 246 6.0 13.0 0.00 1.10 0.12 88 1010.1
20220516044405 63 270 5.0 10.0 0.00 1.10 0.12 88 1010.1
20220516043905 63 235 6.0 12.0 0.00 1.10 0.12 88 1010.1
20220516043405 63 254 5.0 13.0 0.00 1.11 0.12 88 1010.0
20220516042905 63 279 6.0 14.0 0.00 1.11 0.12 87 1010.0
20220516042406 63 255 5.0 12.0 0.00 1.11 0.12 87 1010.0
20220516041905 63 296 6.0 13.0 0.00 1.12 0.12 86 1010.0
20220516041405 63 285 5.0 12.0 0.00 1.12 0.12 87 1010.0
20220516040905 63 245 5.0 12.0 0.00 1.12 0.12 86 1009.9
20220516040405 64 288 7.0 12.0 0.00 1.13 0.12 86 1009.9
20220516035905 64 276 6.0 14.0 0.00 1.13 0.12 86 1009.8
20220516035405 64 252 5.0 12.0 0.00 1.13 0.12 87 1009.8
20220516034905 64 287 7.0 13.0 0.00 1.13 0.12 85 1009.8
20220516034405 64 236 5.0 12.0 0.00 1.14 0.12 86 1009.8
20220516033905 64 280 5.0 12.0 0.00 1.15 0.12 86 1009.8
20220516033405 64 241 7.0 14.0 0.00 1.15 0.12 85 1009.7
20220516032905 65 282 6.0 17.0 0.00 1.16 0.12 85 1009.8
20220516032405 65 272 7.0 18.0 0.00 1.16 0.12 84 1009.8
20220516031906 65 247 6.0 16.0 0.00 1.16 0.12 84 1009.7
20220516031405 65 264 6.0 14.0 0.00 1.17 0.12 85 1009.6
20220516030905 65 265 5.0 12.0 0.00 1.17 0.12 84 1009.6
20220516030405 65 260 6.0 15.0 0.00 1.17 0.12 84 1009.5
20220516025905 65 249 6.0 13.0 0.00 1.17 0.12 83 1009.5
20220516025405 65 278 6.0 15.0 0.00 1.17 0.12 85 1009.5
20220516024905 65 248 6.0 13.0 0.00 1.17 0.12 83 1009.4
20220516024405 65 252 7.0 14.0 0.00 1.17 0.12 82 1009.4
20220516023905 65 242 5.0 14.0 0.00 1.18 0.12 84 1009.5
20220516023405 65 259 7.0 16.0 0.00 1.18 0.12 83 1009.5
20220516022905 65 253 5.0 14.0 0.00 1.18 0.12 85 1009.5
20220516022405 65 313 6.0 13.0 0.00 1.19 0.12 84 1009.6
20220516021905 65 271 6.0 16.0 0.00 1.19 0.12 85 1009.6
20220516021406 65 301 5.0 13.0 0.00 1.20 0.12 86 1009.6
20220516020905 65 280 6.0 12.0 0.00 1.20 0.12 86 1009.5
20220516020405 65 288 7.0 16.0 0.00 1.21 0.12 84 1009.4
20220516015905 65 275 7.0 14.0 0.00 1.21 0.12 85 1009.4
20220516015406 66 287 5.0 13.0 0.00 1.21 0.12 85 1009.3
20220516014905 66 277 5.0 13.0 0.00 1.22 0.12 84 1009.2
20220516014405 66 307 5.0 12.0 0.00 1.23 0.12 84 1009.3
20220516013906 66 284 4.0 12.0 0.00 1.24 0.12 86 1009.2
20220516013405 65 267 5.0 12.0 0.00 1.25 0.12 86 1009.2
20220516012905 65 262 5.0 12.0 0.00 1.26 0.12 87 1009.3
20220516012405 65 284 4.0 8.0 0.00 1.26 0.12 87 1009.3
20220516011905 65 286 5.0 9.0 0.00 1.26 0.12 87 1009.3
20220516011405 65 304 5.0 12.0 0.00 1.26 0.12 88 1009.2
20220516010905 65 294 4.0 9.0 0.00 1.26 0.12 88 1009.2
20220516010406 65 297 5.0 10.0 0.00 1.26 0.12 88 1009.3
20220516005905 65 254 5.0 12.0 0.00 1.26 0.12 88 1009.2
20220516005405 66 312 3.0 9.0 0.00 1.26 0.12 89 1009.3
20220516004906 65 274 5.0 12.0 0.00 1.27 0.12 89 1009.4
20220516004405 65 296 4.0 13.0 0.00 1.27 0.12 90 1009.5
20220516003905 65 261 5.0 12.0 0.00 1.28 0.12 90 1009.4
20220516003405 65 268 5.0 12.0 0.00 1.29 0.12 89 1009.4
20220516002905 65 270 5.0 12.0 0.00 1.29 0.12 88 1009.5
20220516002404 65 240 6.0 13.0 0.00 1.29 0.12 89 1009.5
20220516001905 65 249 5.0 12.0 0.00 1.29 0.12 90 1009.5
20220516001405 65 277 4.0 10.0 0.00 1.29 0.12 91 1009.4
20220516000905 65 288 5.0 15.0 0.00 1.29 0.12 91 1009.5
20220516000405 65 258 5.0 12.0 0.00 1.29 0.12 91 1009.5
20220515235905 65 280 4.0 13.0 0.00 1.30 0.12 93 1009.5
20220515235405 65 258 4.0 12.0 0.00 1.30 0.12 91 1009.6
20220515234905 65 264 3.0 14.0 0.00 1.31 0.12 93 1009.6
20220515234405 65 264 5.0 12.0 0.00 1.31 0.12 92 1009.7
20220515233905 65 253 5.0 13.0 0.00 1.31 0.12 93 1009.7
20220515233406 65 280 6.0 12.0 0.00 1.31 0.12 93 1009.7
20220515232905 65 278 6.0 12.0 0.00 1.32 0.12 92 1009.7
20220515232405 65 287 5.0 13.0 0.00 1.32 0.12 93 1009.6
20220515231905 65 280 5.0 12.0 0.00 1.32 0.12 95 1009.6
20220515231406 64 286 3.0 10.0 0.00 1.32 0.12 96 1009.6
20220515230905 64 255 5.0 10.0 0.00 1.32 0.12 98 1009.6
20220515230405 63 292 4.0 12.0 0.00 1.32 0.12 98 1009.5
20220515225905 63 287 5.0 10.0 0.00 1.32 0.12 98 1009.6
20220515225405 63 275 3.0 8.0 0.00 1.32 0.12 98 1009.5
20220515224905 63 328 5.0 12.0 0.00 1.32 0.12 98 1009.5
20220515224405 63 298 4.0 12.0 0.00 1.32 0.12 98 1009.4